Regional Weather Roundup
Issued by NWS

Home | Current Version | Previous Version | Text Only | Print | Product List | Glossary Off
Versions: 1 2 3 4 5 6 7 8 9 10 11 12 13 14 15 16 17 18 19 20 21 22 23 24 25 26 27 28 29 30 31 32 33 34 35 36 37 38 39 40 41 42 43 44 45 46 47 48 49 50

000
ASUS43 KDMX 202007
RWRIA

WEATHER ROUNDUP FOR IOWA
NATIONAL WEATHER SERVICE DES MOINES IA
300 PM CDT MON APR 20 2015

NOTE: "FAIR" INDICATES FEW OR NO CLOUDS BELOW 12,000 FEET WITH NO
SIGNIFICANT WEATHER AND/OR OBSTRUCTIONS TO VISIBILITY.

* - THESE STATIONS ARE NOT NWS STATIONS...THUS NOT UNDER NWS
QUALITY CONTROL.  THEY ALSO DO NOT REPORT WEATHER SUCH
AS PRECIPITATION OR FOG.

IAZ001>003-012>014-020>022-031>034-043>046-202100-
   NORTHWEST IOWA

CITY           SKY/WX    TMP DP  RH WIND       PRES   REMARKS
CARROLL *      MOSUNNY   54  25  32 W31G38    29.69S
CHEROKEE *     SUNNY     52  19  28 W25G31    29.68F
DENISON *      SUNNY     54  21  28 NW28G35   29.69F
LE MARS *      SUNNY     55  12  18 NW25G35   29.71S
ORANGE CITY *  SUNNY     52  19  28 NW26G41   29.67S
SHELDON *      SUNNY     52  18  25 NW28G38   29.64F
SIOUX CITY     LGT RAIN  57  14  18 NW26G44   29.69F
SPENCER        PTSUNNY   53  25  33 NW29G39   29.64F
STORM LAKE *   SUNNY     52  19  28 NW28G39   29.67F
$$

IAZ055>058-069>071-079>083-090>094-202100-
   SOUTHWEST IOWA

CITY           SKY/WX    TMP DP  RH WIND       PRES   REMARKS
ATLANTIC *     MOSUNNY   54  25  32 NW25G35   29.73F
AUDUBON *      MOSUNNY   54  19  26 NW20G28   29.72S
CLARINDA *     MOSUNNY   55  28  35 W23G31    29.80F
COUNCIL BLFS * MOSUNNY   55  23  28 W31G38    29.75F
CRESTON *      PTSUNNY   52  28  40 W25G40    29.74S
HARLAN  *      SUNNY     54  27  35 NW25G39   29.75F
LAMONI         PTSUNNY   53  32  44 NW28G33   29.75S
RED OAK *      MOSUNNY   55  25  30 NW20G26   29.77S
SHENANDOAH *   MOSUNNY   55  25  30 W29G36    29.80S
$$

IAZ047>049-059>061-072>074-084-202100-
   CENTRAL IOWA

CITY           SKY/WX    TMP DP  RH WIND       PRES   REMARKS
AMES           PTSUNNY   52  28  39 W28G37    29.66S
ANKENY *       MOSUNNY   52  27  37 NW26G38   29.67S
CHARITON *     MOSUNNY   52  30  43 W22G33    29.71S
DES MOINES     PTSUNNY   56  26  31 W29G38    29.68S
GRINNELL*      CLOUDY    48  34  57 W22G31    29.66S
KNOXVILLE *    PTSUNNY   50  27  40 W25G35    29.67F
MARSHALLTOWN   LGT RAIN  47  36  65 NW26G33   29.63S
PELLA *        PTSUNNY   50  36  57 NW14G25   29.69S
PERRY *          N/A     52  30  43 NW21G36   29.69S
$$

IAZ004>006-015-016-023>025-035-036-202100-
   NORTH CENTRAL IOWA

CITY           SKY/WX    TMP DP  RH WIND       PRES   REMARKS
ALGONA *       CLOUDY    46  30  53 NW21G32   29.64R
CLARION *      PTSUNNY   46  36  66 NW25G38   29.62F
ESTHERVILLE    CLOUDY    45  31  58 NW24G36   29.64R
FORT DODGE *   CLOUDY    52  30  43 NW17G26   29.65F
MASON CITY     CLOUDY    45  33  63 NW24G31   29.62R
FOREST CITY *  CLOUDY    41  32  70 NW18G25   29.61S
IOWA FALLS *   LGT RAIN  46  34  61 W25G33    29.64S
$$

IAZ007>011-017>019-026>030-037>042-050>054-066-202100-
   NORTHEAST IOWA

CITY           SKY/WX    TMP DP  RH WIND       PRES   REMARKS
CEDAR RAPIDS   LGT RAIN  41  38  89 W20G35    29.61R FOG
CHARLES CITY * CLOUDY    45  34  65 NW25G41   29.58S
CLINTON *      CLOUDY    46  30  53 W30G38    29.60R
DECORAH *      CLOUDY    41  30  65 NW13G25   29.53S
DUBUQUE        CLOUDY    43  32  65 W24G37    29.55R
MONTICELLO *   CLOUDY    45  32  61 NW24G37   29.58R
OELWEIN *      CLOUDY    45  34  65 NW26G37   29.58R
WATERLOO       PTSUNNY   48  32  53 NW20G35   29.60S
$$

IAZ064-065-067-068-078-202100-
   EAST CENTRAL IOWA

CITY           SKY/WX    TMP DP  RH WIND       PRES   REMARKS
DAVENPORT      CLOUDY    47  30  51 NW36G47   29.60R
IOWA CITY      CLOUDY    48  35  60 NW20G26   29.64R
MT. PLEASANT * PTSUNNY   50  30  46 W16G31    29.68S
MUSCATINE *    CLOUDY    50  34  53 W23G35    29.65R
QUAD CITIES    PTSUNNY   49  31  49 W29G37    29.60R
$$

IAZ062-063-075>077-085>089-095>099-202100-
   SOUTHEAST IOWA

CITY           SKY/WX    TMP DP  RH WIND       PRES   REMARKS
BURLINGTON     CLOUDY    50  32  50 NW20G32   29.67R
FAIRFIELD *    CLOUDY    50  32  50 W20G29    29.67R
FORT MADISON * CLOUDY    48  36  61 W15G23    29.70R
KEOKUK *       PTSUNNY   54  34  47 W18G29    29.69S
OSKALOOSA *    CLOUDY    50  34  53 W22G35    29.68S
CENTERVILLE *  MOSUNNY   50  36  57 W21G30    29.73S
OTTUMWA        CLOUDY    50  32  50 W22G30    29.68S
WASHINGTON *   CLOUDY    50  34  53 W21G35    29.66S
$$

ABBREVIATIONS USED IN REMARKS
   TC - TEMPERATURES IN CELSIUS
  WCI - WIND CHILL INDEX
   HX - HEAT INDEX
  VSB - VISIBILITY
$$




USA.gov is the U.S. government's official web portal to all federal, state and local government web resources and services.